sat.trackr.live / text

‹ back to catalog

STARLINK-31142

NORAD 58779 · 2024-011Q

PAYLOAD ACTIVE UNKNOWN

§ Identity

Operator
Country
US
Launch date
2024-01-14
Launch site
AFWTR
Launch vehicle
Mass (kg)
RCS (m²)

Purposes: comms

External: N2YO · Heavens-Above · Gunter

§ Orbital elements

Epoch: 2026-09-20T11:51:08.287488Z

Period
93.85 min
Inclination
53.1595°
Eccentricity
0.0001812
Mean motion
15.34394682 rev/d
Perigee alt
461.5 km
Apogee alt
464.0 km
Semi-major
6,840.9 km
B*
4.4880e-5
RAAN
187.5465°
Arg perigee
74.2388°
Mean anomaly
285.8814°
Rev number
15,011

§ Raw data

STARLINK-311421 58779U 24011Q   26263.49384592  .00001140  00000+0  44880-4 0  99902 58779  53.1595 187.5465 0001812  74.2388 285.8814 15.34394682150115

JSON: /api/v1/satellites/58779 · /tle

For live sub-satellite position, see the globe view (requires WebGL).

§ Visibility from observer

Set your observer location to see the next 7 days of passes ≥ 10°. The values pass through the URL so the page stays shareable.

No JS? Fill the form by hand. The geolocation button needs JavaScript.